sat.trackr.live / text

‹ back to catalog

STARLINK-36516

NORAD 67455 · 2026-008L

PAYLOAD ACTIVE UNKNOWN

§ Identity

Operator
Country
US
Launch date
2026-01-14
Launch site
AFETR
Launch vehicle
Mass (kg)
RCS (m²)

Purposes: comms

External: N2YO · Heavens-Above · Gunter

§ Orbital elements

Epoch: 2026-09-19T03:53:55.889952Z

Period
94.27 min
Inclination
43.0008°
Eccentricity
0.0001272
Mean motion
15.27583392 rev/d
Perigee alt
482.2 km
Apogee alt
483.9 km
Semi-major
6,861.2 km
B*
4.4002e-4
RAAN
192.3953°
Arg perigee
269.6206°
Mean anomaly
90.4500°
Rev number
3,916

§ Raw data

STARLINK-365161 67455U 26008L   26262.16245243  .00011867  00000+0  44002-3 0  99932 67455  43.0008 192.3953 0001272 269.6206  90.4500 15.27583392 39161

JSON: /api/v1/satellites/67455 · /tle

For live sub-satellite position, see the globe view (requires WebGL).

§ Visibility from observer

Set your observer location to see the next 7 days of passes ≥ 10°. The values pass through the URL so the page stays shareable.

No JS? Fill the form by hand. The geolocation button needs JavaScript.